#timestamp,LO_Frequency,Hit,StdDev 
1514797215.3,286047000.1,N
1514797235.1,286046999.4,N
1514797236.0,286046999.4,N
1514797255.8,286046999.3,N
1514797275.7,286047002.0,N
1514797295.5,286047005.9,Y
1514797315.3,286047003.5,P
1514797335.2,286047007.1,P
1514797355.9,286047003.2,N
1514797375.7,286047005.1,N
1514797395.5,286047001.3,N
1514797415.4,286047001.4,N
1514797435.2,286047002.2,N
1514797455.0,286047000.5,N
1514797455.9,286047000.5,N
1514797475.8,286047000.9,N
1514797495.6,286046998.6,N
1514797515.4,286046996.3,N
1514797535.3,286046999.6,N
1514797555.1,286046997.9,N
1514797556.0,286046997.9,N
1514797575.8,286046994.1,N
1514797595.7,286046991.2,N
1514797615.5,286046988.6,Y
1514797635.3,286046989.6,P
1514797655.2,286046990.3,N
1514797675.9,286046993.6,N
1514797695.7,286046996.1,N
1514797715.6,286046994.6,N
1514797735.4,286046994.4,N
1514797755.2,286046992.4,N
1514797775.1,286046992.2,N
1514797776.0,286046992.2,N
1514797795.8,286046992.2,N
1514797815.6,286046994.2,N
1514797835.4,286046992.5,N
1514797855.3,286046993.7,N
1514797875.1,286046995.1,N
1514797895.8,286046999.2,N
1514797915.7,286046998.1,N
1514797935.5,286047002.1,N
1514797955.3,286047002.4,N
1514797975.2,286047002.2,N
1514797995.9,286047002.5,N
1514798015.7,286047001.4,N
1514798035.6,286047005.9,N
1514798055.4,286047010.8,N
1514798075.2,286047008.0,N
1514798095.0,286047011.3,N
1514798096.0,286047011.3,N
1514798115.8,286047008.7,N
1514798135.6,286047007.8,N
1514798155.4,286047010.6,N
1514798175.3,286047006.1,N
1514798195.1,286047009.8,N
1514798215.8,286047011.4,N
1514798235.7,286047010.4,N
1514798255.5,286047013.0,N
1514798275.3,286047016.5,N
1514798295.2,286047017.9,N
1514798315.9,286047017.1,N
1514798335.7,286047014.2,N
1514798355.6,286047020.2,N
1514798375.4,286047018.7,N
1514798395.2,286047014.2,N
1514798415.1,286047013.5,N
1514798416.0,286047013.5,N
1514798435.8,286047011.2,N
1514798455.6,286047007.9,N
1514798475.5,286047009.1,N
1514798495.3,286047006.9,N
1514798515.1,286047003.8,N
1514798535.8,286047000.5,N
1514798555.7,286046999.4,N
1514798575.5,286046998.4,N
1514798595.3,286046992.3,N
1514798615.2,286046991.0,N
1514798635.9,286046992.2,N
1514798655.7,286046994.6,N
1514798675.6,286046992.4,N
1514798695.4,286046994.5,N
1514798715.2,286046994.1,N
1514798735.1,286046991.0,N
1514798736.0,286046991.0,N
1514798755.8,286046989.9,N
1514798775.6,286046986.4,N
1514798795.5,286046988.4,N
1514798815.3,286046989.9,N
1514798835.1,286046992.3,N
1514798855.8,286046991.1,N
1514798875.7,286046988.7,N
1514798895.5,286046987.0,N
1514798915.3,286046990.0,N
1514798935.2,286046986.1,N
1514798955.0,286046985.7,N
1514798955.9,286046985.7,N
1514798975.7,286046985.3,N
1514798995.6,286046985.5,N
1514799015.4,286046988.1,N
1514799035.2,286046985.4,N
1514799055.1,286046989.8,N
1514799056.0,286046989.8,N
1514799075.8,286046989.1,N
1514799095.6,286046987.9,Y
1514799115.5,286046995.7,P
1514799135.3,286046997.4,N
1514799155.1,286046996.7,N
1514799175.9,286047001.0,N
1514799195.7,286047005.6,N
1514799215.5,286047006.9,N
1514799235.4,286047007.0,N
1514799255.2,286047005.7,N
1514799275.0,286047002.9,N
1514799275.9,286047002.9,N
1514799295.8,286047005.8,N
1514799315.6,286047004.8,N
1514799335.4,286047008.7,N
1514799355.2,286047006.3,N
1514799375.1,286047008.0,N
1514799376.0,286047008.0,N
1514799395.8,286047007.3,N
1514799415.6,286047006.9,N
1514799435.5,286047006.7,N
1514799455.3,286047005.4,N
1514799475.1,286047003.6,N
1514799495.9,286047003.3,N
1514799515.7,286047007.3,N
1514799535.5,286047008.7,N
1514799555.4,286047008.7,N
1514799575.2,286047006.2,N
1514799595.0,286047010.8,N
1514799595.9,286047010.8,N
1514799615.8,286047013.6,N
1514799635.6,286047013.5,N
1514799655.4,286047012.3,N
1514799675.2,286047007.8,N
1514799695.1,286047008.5,N
1514799696.0,286047008.5,N
1514799715.8,286047010.9,Y
1514799735.7,286047004.7,P
1514799755.5,286047000.1,N
1514799775.3,286046997.8,N
1514799795.1,286046998.1,N
1514799815.9,286047000.5,N
1514799835.7,286047002.5,N
1514799855.5,286047002.4,N
1514799875.4,286047000.2,N
1514799895.2,286047003.9,N
1514799915.0,286047004.0,N
1514799915.9,286047004.0,N
1514799935.8,286047000.3,N
1514799955.6,286046999.6,N
1514799975.4,286046995.6,N
1514799995.3,286046994.9,N
1514800015.1,286046997.5,N
1514800016.0,286046997.5,N
1514800035.8,286046995.0,N
1514800055.6,286046994.2,N
1514800075.5,286046993.0,N
1514800095.3,286046993.9,N
1514800115.1,286046993.7,N
1514800135.9,286046993.9,N
1514800155.7,286046996.8,N
1514800175.5,286046997.9,N
1514800195.4,286046993.7,N
1514800215.2,286046993.3,N
1514800235.0,286046993.0,N
1514800235.9,286046993.0,N
1514800255.8,286046993.0,N
1514800275.6,286046993.5,N
1514800295.4,286046996.4,N
1514800315.3,286046991.9,N
1514800335.1,286046993.3,N
1514800336.0,286046993.3,N
1514800355.8,286046991.6,N
1514800375.7,286046986.9,Y
1514800395.5,286046993.5,P
1514800415.3,286046997.5,N
1514800435.2,286046995.6,N
1514800455.9,286046993.6,Y
1514800475.7,286046999.4,P
1514800495.6,286046999.0,N
1514800515.4,286046998.2,N
1514800535.2,286047000.3,N
1514800555.0,286047000.0,N
1514800556.0,286047000.0,N
1514800575.8,286046997.0,N
1514800595.6,286047000.0,N
1514800615.4,286046996.8,N
1514800635.3,286046997.6,N
1514800655.1,286046997.9,N
1514800675.8,286046996.4,N
1514800695.7,286046995.1,Y
1514800715.5,286046997.7,P
1514800735.3,286046995.3,P
1514800755.2,286046999.5,N
1514800775.9,286046997.1,N
1514800795.7,286046993.9,Y
